[[{"header":{"parameterUnit":"m.s-1","parameterCategory":1,"la1":30.2991,"la2":30.254,"lo1":-89.0895,"lo2":-89.0444,"dy":0.0017,"dx":0.0017,"nx":28,"ny":28,"refTime":"2024-09-27T21:00:00:Z","depth":0,"parameterNumber":2,"parameterNumberName":"U-component_of_WINDS"},"data":[0,0,0,0,0,0,0,0,0,0,0,0,0,0,0,0,0,0,0,0,0,0,0,0,0,0,0,0,0,0,0,0,0,0,0,0,0,0,0,0,0,0,0,0,0,0,0,0,0,0,0,0,0,0,0,0,0,0,6.3848,6.385,0,6.4066,6.4069,6.4071,6.3998,6.3993,6.3988,6.3984,6.4209,6.4219,6.4229,0,0,0,0,0,0,0,0,0,0,0,0,0,6.3367,6.3377,6.3848,6.3851,6.3853,6.4066,6.4069,6.4072,6.3998,6.3993,6.3987,6.3981,6.4205,6.4218,6.423,0,0,0,0,0,0,0,0,0,0,0,0,0,6.358,6.338,6.3847,6.3842,6.3844,6.4065,6.4069,6.4073,6.4,6.3993,6.3985,6.3979,6.4201,6.4217,6.4232,6.4472,0,0,6.428,6.4287,0,0,0,0,0,0,0,0,6.3568,6.3598,6.384,6.3843,6.3845,6.3997,6.3982,6.4207,6.4002,6.3941,6.3983,6.3975,6.4144,6.4164,6.4221,6.4483,6.4492,6.4281,6.4291,6.4298,6.4302,0,0,0,0,0,0,0,6.3553,6.3588,6.3934,6.3844,6.3847,6.3829,6.3851,6.4024,6.408,6.3945,6.3941,6.3967,6.4144,6.4206,6.4226,6.4496,6.4281,6.4295,6.4304,6.4311,6.4962,6.497,0,0,0,0,0,0,6.3537,6.3576,6.3927,6.3941,6.3686,6.3844,6.3868,6.3956,6.4078,6.409,6.3973,6.3963,6.4183,6.4208,6.4233,6.4521,6.4297,6.4312,6.4321,6.4954,6.4964,6.4972,0,0,0,0,0,0,6.3527,6.3569,6.3919,6.3757,6.38,6.3859,6.3958,6.3964,6.4025,6.4099,6.4109,6.4026,6.4178,6.4211,6.4413,6.4527,6.4319,6.4333,6.4945,6.4957,6.4968,6.5098,0,0,0,0,0,0,6.3514,6.3566,6.3658,6.376,6.3809,6.4095,6.3965,6.3973,6.4053,6.4041,6.4151,6.4162,6.4175,6.439,6.4428,6.4545,6.4346,6.4935,6.495,6.4964,6.5084,6.5113,6.5138,0,0,0,0,0,6.3497,6.3687,6.3663,6.3706,6.3926,6.4101,6.413,6.414,6.4062,6.4155,6.4202,6.4159,6.4509,6.4411,6.4454,6.4577,6.4928,6.4946,6.4963,6.5071,6.5107,6.5137,0,0,0,0,0,0,6.3598,6.37,6.3675,6.3904,6.3994,6.4088,6.4206,6.4178,6.4293,6.4277,6.4286,6.4311,6.4517,6.4567,6.4457,6.4814,6.4707,6.4734,6.4774,6.4809,6.4835,6.4818,6.4359,0,0,0,0,0,6.3647,6.3781,6.3863,6.4057,6.4103,6.4147,6.4224,6.4224,6.4318,6.4357,6.4418,6.4512,6.4642,6.4728,6.4853,6.509,6.5112,6.5196,6.5223,6.5245,6.5268,6.5396,6.5433,6.5031,6.5031,6.503,0,0,6.3749,6.3822,6.3906,6.4079,6.4149,6.4287,6.418,6.4331,6.4434,6.438,6.4573,6.4621,6.4726,6.4946,6.5046,6.4994,6.5384,6.5268,6.5285,6.5296,6.5418,6.5456,6.549,6.5043,6.5041,6.5039,0,0,6.4006,6.4075,6.4243,6.4315,6.4422,6.445,6.449,6.4589,6.4618,6.4812,6.4773,6.4895,6.5121,6.5196,6.5264,6.5548,6.5512,6.5588,6.5729,6.5853,6.5885,6.5913,6.6012,6.6048,6.5611,6.5612,6.5612,0,6.4121,6.4327,6.4333,6.4488,6.4564,6.452,6.4689,6.4759,6.4902,6.4956,6.4895,6.5176,6.5243,6.5479,6.5548,6.5605,6.565,6.5576,6.588,6.5908,6.5934,6.6029,6.6067,6.562,6.5619,6.5618,6.5617,0,6.4461,6.4605,6.4728,6.4865,6.4955,6.5117,6.5147,6.5237,6.5229,6.5263,6.5459,6.5539,6.5677,6.5733,6.5728,6.5968,6.5932,6.5876,6.5768,6.5981,6.607,6.6107,6.5632,6.5629,6.5627,6.5625,0,0,6.4789,6.4926,6.4971,6.5032,6.5146,6.5257,6.5415,6.555,6.5627,6.5726,6.5859,6.6049,6.5997,6.6074,6.6076,6.6185,6.6402,6.6115,6.6118,6.6165,6.667,6.6711,6.6753,6.6379,6.6386,6.6392,6.6661,0,6.5054,6.5332,6.5341,6.5595,6.5727,6.5686,6.5824,6.5909,6.5944,6.6061,6.61,6.6234,6.6156,6.6202,6.6308,6.6353,6.6504,6.6334,6.6502,6.6508,6.6476,6.68,6.6844,6.7094,6.6696,6.6702,6.6706,0,6.5401,6.551,6.5776,6.5869,6.5925,6.6048,6.6171,6.6284,6.6378,6.6396,6.6481,6.6466,6.6628,6.6514,6.6736,6.662,6.6689,6.6722,6.6732,6.6747,6.6619,6.6822,6.7174,6.7211,6.6761,6.6757,6.6753,0,6.5612,6.5825,6.6011,6.6065,6.6178,6.6265,6.6317,6.6404,6.6483,6.6591,6.6642,6.6768,6.6836,6.6933,6.6953,6.6869,6.7174,6.7063,6.7192,6.7192,6.7258,6.7253,6.7624,6.7305,6.7304,6.7304,6.7303,0,6.5907,6.6071,6.6107,6.6222,6.6404,6.6412,6.6592,6.6637,6.6715,6.6837,6.681,6.6925,6.6944,6.7063,6.7079,6.7259,6.7291,6.7309,6.7311,6.7311,6.7308,6.7356,6.7338,6.7314,6.7311,6.731,6.7308,0,6.6173,6.6204,6.6403,6.6493,6.652,6.665,6.6727,6.6836,6.6867,6.7022,6.7059,6.7108,6.7247,6.7276,6.7441,6.7452,6.7665,6.7651,6.7633,6.7631,6.7758,6.7745,6.8171,6.8227,6.7873,6.7876,6.7879,0,6.6358,6.6483,6.6586,6.6665,6.672,6.6849,6.6929,6.6942,6.7026,6.7142,6.7237,6.7372,6.7481,6.7705,6.7756,6.7881,6.7869,6.8009,6.7888,6.7882,6.7869,6.7861,6.7872,6.8032,6.8036,6.8039,6.8042,0,6.6684,6.6692,6.6808,6.693,6.7026,6.7123,6.7215,6.7282,6.7307,6.7403,6.7544,6.7628,6.7795,6.793,6.8055,6.8107,6.8079,6.808,6.8116,6.8117,6.81,6.8109,6.7695,6.807,6.8067,6.8065,6.8064,6.8062,6.6914,6.7022,6.7111,6.7241,6.7311,6.7397,6.7503,6.7547,6.7664,6.78,6.7801,6.7954,6.8043,6.8208,6.8268,6.8388,6.8344,6.8397,6.841,6.8423,6.8433,6.8082,6.8411,6.841,6.8409,6.8409,6.8408,0,6.7237,6.7291,6.741,6.7539,6.7641,6.7604,6.7703,6.7791,6.7926,6.8011,6.8118,6.8279,6.8408,6.8469,6.8596,6.868,6.867,6.8713,6.8707,6.8719,6.8467,6.8422,6.8719,6.8719,6.8719,6.8719,6.8719,6.8719,6.7417,6.7597,6.7615,6.783,6.7883,6.8032,6.8091,6.817,6.8237,6.8418,6.8525,6.8562,6.8637,6.877,6.8887,6.8901,6.8948,6.8997,6.9005,6.8769,6.8737,6.8707,6.8664,6.9008,6.9008,6.9247,6.9249,6.9251]},{"header":{"parameterUnit":"m.s-1","parameterCategory":1,"la1":30.2991,"la2":30.254,"lo1":-89.0895,"lo2":-89.0444,"dy":0.0017,"dx":0.0017,"nx":28,"ny":28,"refTime":"2024-09-27T21:00:00:Z","depth":0,"parameterNumber":3,"parameterNumberName":"V-component_of_WINDS"},"data":[0,0,0,0,0,0,0,0,0,0,0,0,0,0,0,0,0,0,0,0,0,0,0,0,0,0,0,0,0,0,0,0,0,0,0,0,0,0,0,0,0,0,0,0,0,0,0,0,0,0,0,0,0,0,0,0,0,0,1.2432,1.2432,0,1.2432,1.2431,1.2431,1.2432,1.2432,1.2432,1.2432,1.243,1.243,1.243,0,0,0,0,0,0,0,0,0,0,0,0,0,1.2433,1.2433,1.2432,1.2432,1.2432,1.2432,1.2431,1.2431,1.2432,1.2432,1.2432,1.2432,1.243,1.243,1.243,0,0,0,0,0,0,0,0,0,0,0,0,0,1.2432,1.2433,1.2432,1.2432,1.2432,1.2432,1.2431,1.2431,1.2432,1.2432,1.2432,1.2432,1.243,1.243,1.243,1.2429,0,0,1.243,1.243,0,0,0,0,0,0,0,0,1.2432,1.2432,1.2432,1.2432,1.2432,1.2432,1.2431,1.2431,1.2432,1.2432,1.2432,1.2432,1.2431,1.2431,1.243,1.2429,1.2429,1.243,1.243,1.243,1.243,0,0,0,0,0,0,0,1.2432,1.2432,1.2432,1.2432,1.2432,1.2432,1.2432,1.2431,1.2431,1.2432,1.2432,1.2432,1.2431,1.243,1.243,1.2428,1.243,1.243,1.243,1.243,1.2424,1.2424,0,0,0,0,0,0,1.2433,1.2432,1.2432,1.2432,1.2432,1.2432,1.2432,1.2432,1.2431,1.2431,1.2432,1.2432,1.2431,1.243,1.243,1.2428,1.243,1.243,1.2429,1.2424,1.2424,1.2424,0,0,0,0,0,0,1.2433,1.2432,1.2432,1.2432,1.2432,1.2432,1.2432,1.2432,1.2432,1.2431,1.2431,1.2432,1.2431,1.243,1.2429,1.2428,1.243,1.2429,1.2424,1.2424,1.2424,1.2423,0,0,0,0,0,0,1.2433,1.2433,1.2432,1.2432,1.2432,1.2431,1.2432,1.2432,1.2432,1.2432,1.2431,1.2431,1.2431,1.2429,1.2429,1.2428,1.2429,1.2424,1.2424,1.2424,1.2423,1.2423,1.2423,0,0,0,0,0,1.2433,1.2432,1.2432,1.2432,1.2432,1.2431,1.2431,1.2431,1.2432,1.2431,1.2431,1.2431,1.2428,1.2429,1.2429,1.2427,1.2425,1.2424,1.2424,1.2423,1.2423,1.2423,0,0,0,0,0,0,1.2433,1.2432,1.2433,1.2432,1.2432,1.2431,1.2431,1.2431,1.243,1.243,1.243,1.243,1.2428,1.2427,1.2429,1.2425,1.2426,1.2426,1.2426,1.2425,1.2425,1.2425,1.2429,0,0,0,0,0,1.2433,1.2432,1.2432,1.2432,1.2431,1.2431,1.2431,1.2431,1.243,1.243,1.2429,1.2428,1.2427,1.2426,1.2425,1.2423,1.2422,1.2422,1.2422,1.2422,1.2421,1.2419,1.2419,1.2423,1.2423,1.2423,0,0,1.2433,1.2432,1.2432,1.2432,1.2431,1.243,1.2431,1.243,1.2429,1.243,1.2428,1.2427,1.2426,1.2424,1.2423,1.2424,1.242,1.2421,1.2421,1.2421,1.2419,1.2418,1.2418,1.2423,1.2423,1.2423,0,0,1.2432,1.2432,1.2432,1.2431,1.243,1.243,1.243,1.2429,1.2428,1.2427,1.2427,1.2425,1.2423,1.2422,1.2421,1.2419,1.2419,1.2418,1.2417,1.2415,1.2415,1.2414,1.2413,1.2412,1.2418,1.2418,1.2418,0,1.2432,1.2431,1.2431,1.243,1.2429,1.2429,1.2428,1.2428,1.2426,1.2426,1.2426,1.2423,1.2422,1.2419,1.2419,1.2418,1.2417,1.2419,1.2415,1.2414,1.2414,1.2412,1.2412,1.2418,1.2418,1.2418,1.2418,0,1.2431,1.243,1.2429,1.2428,1.2427,1.2426,1.2426,1.2425,1.2424,1.2424,1.2421,1.242,1.2418,1.2418,1.2417,1.2414,1.2414,1.2415,1.2416,1.2413,1.2412,1.2411,1.2418,1.2418,1.2418,1.2418,0,0,1.2431,1.2429,1.2429,1.2428,1.2426,1.2425,1.2424,1.2422,1.2421,1.242,1.2418,1.2415,1.2415,1.2414,1.2414,1.2412,1.2409,1.2412,1.2412,1.2411,1.2404,1.2404,1.2403,1.2409,1.2409,1.2409,1.2404,0,1.243,1.2428,1.2427,1.2425,1.2423,1.2423,1.2421,1.2419,1.2418,1.2417,1.2415,1.2413,1.2414,1.2413,1.2411,1.241,1.2408,1.241,1.2406,1.2406,1.2406,1.2403,1.2402,1.2398,1.2404,1.2404,1.2404,0,1.2429,1.2427,1.2425,1.2422,1.2422,1.2421,1.2418,1.2417,1.2415,1.2414,1.2412,1.2411,1.2409,1.241,1.2405,1.2407,1.2405,1.2404,1.2404,1.2404,1.2405,1.2401,1.2397,1.2396,1.2403,1.2403,1.2403,0,1.2428,1.2426,1.2424,1.2423,1.242,1.2419,1.2418,1.2416,1.2414,1.2412,1.2411,1.2408,1.2407,1.2404,1.2403,1.2404,1.2398,1.2399,1.2397,1.2397,1.2396,1.2396,1.2391,1.2395,1.2395,1.2395,1.2395,0,1.2427,1.2425,1.2423,1.2422,1.242,1.2419,1.2416,1.2415,1.2413,1.241,1.2409,1.2407,1.2405,1.2403,1.2401,1.2397,1.2397,1.2395,1.2395,1.2395,1.2395,1.2394,1.2394,1.2395,1.2395,1.2395,1.2395,0,1.2427,1.2425,1.2423,1.242,1.2419,1.2418,1.2415,1.2413,1.2412,1.2409,1.2408,1.2406,1.2402,1.24,1.2396,1.2395,1.239,1.239,1.2391,1.2391,1.2388,1.2388,1.2382,1.2381,1.2387,1.2387,1.2386,0,1.2426,1.2425,1.2422,1.242,1.2419,1.2416,1.2415,1.2413,1.2411,1.2408,1.2406,1.2403,1.24,1.2394,1.2392,1.2388,1.2388,1.2385,1.2387,1.2387,1.2387,1.2387,1.2386,1.2385,1.2385,1.2385,1.2385,0,1.2424,1.2424,1.2421,1.2419,1.2416,1.2414,1.2412,1.241,1.2408,1.2406,1.2402,1.24,1.2395,1.2392,1.2387,1.2385,1.2384,1.2385,1.2384,1.2384,1.2384,1.2383,1.239,1.2385,1.2385,1.2385,1.2385,1.2385,1.2423,1.2422,1.2419,1.2416,1.2414,1.2412,1.241,1.2407,1.2405,1.2401,1.24,1.2396,1.2392,1.2387,1.2384,1.2381,1.2381,1.238,1.2379,1.2379,1.2379,1.2385,1.238,1.238,1.238,1.238,1.238,0,1.2422,1.242,1.2417,1.2413,1.2411,1.241,1.2407,1.2405,1.2401,1.2398,1.2395,1.2391,1.2386,1.2383,1.2379,1.2376,1.2376,1.2375,1.2375,1.2374,1.2379,1.238,1.2376,1.2376,1.2376,1.2376,1.2376,1.2376,1.242,1.2417,1.2416,1.2411,1.2409,1.2405,1.2403,1.24,1.2398,1.2392,1.2389,1.2387,1.2383,1.2378,1.2374,1.2373,1.2371,1.2371,1.237,1.2374,1.2374,1.2375,1.2376,1.2371,1.237,1.2365,1.2365,1.2365]}]]